This is the latest recevied weather packets stored in our database for station/object W0AKO. If no packets are shown the sender has not sent any weather packets the latest 10 day(s).
| Time | Temp. | Humidity | Pressure | Rain* | Wind** | Luminosity | Snow |
|---|---|---|---|---|---|---|---|
| 1778018432 | 22.78° C | 10% | 1010.6 hPa | 0 mm | - | 503 W/m² | - |
| 1778018130 | 22.78° C | 10% | 1010.7 hPa | 0 mm | - | 492 W/m² | - |
| 1778017827 | 22.78° C | 10% | 1010.7 hPa | 0 mm | - | 541 W/m² | - |
| 1778017525 | 22.22° C | 10% | 1010.8 hPa | 0 mm | - | 572 W/m² | - |
| 1778017222 | 22.78° C | 10% | 1010.8 hPa | 0 mm | - | 562 W/m² | - |
| 1778016920 | 22.22° C | 10% | 1010.6 hPa | 0 mm | - | 609 W/m² | - |
| 1778016615 | 22.78° C | 10% | 1010.7 hPa | 0 mm | - | 641 W/m² | - |
| 1778016312 | 23.33° C | 10% | 1010.7 hPa | 0 mm | - | 656 W/m² | - |
| 1778016009 | 22.78° C | 10% | 1010.9 hPa | 0 mm | - | 672 W/m² | - |
| 1778015707 | 22.78° C | 10% | 1010.9 hPa | 0 mm | - | 699 W/m² | - |
| 1778015403 | 22.22° C | 10% | 1011.3 hPa | 0 mm | - | 736 W/m² | - |
| 1778015100 | 22.22° C | 10% | 1011.4 hPa | 0 mm | - | 759 W/m² | - |
| 1778014796 | 22.78° C | 10% | 1011 hPa | 0 mm | - | 757 W/m² | - |
| 1778014495 | 22.78° C | 10% | 1011.5 hPa | 0 mm | - | 764 W/m² | - |
| 1778014191 | 22.22° C | 10% | 1011.3 hPa | 0 mm | - | 764 W/m² | - |
| 1778013890 | 22.22° C | 10% | 1011.5 hPa | 0 mm | - | 753 W/m² | - |
| 1778013586 | 22.22° C | 10% | 1011.6 hPa | 0 mm | - | 766 W/m² | - |
| 1778013283 | 21.67° C | 10% | 1011.5 hPa | 0 mm | - | 783 W/m² | - |
| 1778012979 | 21.67° C | 10% | 1011.5 hPa | 0 mm | - | 140 W/m² | - |
| 1778012676 | 22.78° C | 10% | 1011.7 hPa | 0 mm | - | 798 W/m² | - |
| 1778012372 | 21.67° C | 10% | 1011.7 hPa | 0 mm | - | 754 W/m² | - |
| 1778012069 | 21.67° C | 10% | 1011.7 hPa | 0 mm | - | 775 W/m² | - |
| 1778011767 | 21.67° C | 10% | 1011.6 hPa | 0 mm | - | 787 W/m² | - |
| 1778011464 | 22.22° C | 10% | 1011.6 hPa | 0 mm | - | 797 W/m² | - |
| 1778011160 | 22.22° C | 10% | 1011.5 hPa | 0 mm | - | 791 W/m² | - |
* Rain latest hour (hover to see other rain measurements)
** Current wind speed in m/s (hover to see current wind gust speed)